This is the latest recevied weather packets stored in our database for station/object WB5TZJ. If no packets are shown the sender has not sent any weather packets the latest 10 day(s).
| Time | Temp. | Humidity | Pressure | Rain* | Wind** | Luminosity | Snow |
|---|---|---|---|---|---|---|---|
| 1777647047 | 22.78° C | 48% | 1013.2 hPa | 0 mm | - | - | - |
| 1777646447 | 22.78° C | 47% | 1012.5 hPa | 0 mm | - | - | - |
| 1777645847 | 22.78° C | 46% | 1012.1 hPa | 0 mm | - | - | - |
| 1777645247 | 22.78° C | 48% | 1012.1 hPa | 0 mm | - | - | - |
| 1777644647 | 22.78° C | 45% | 1012.1 hPa | 0 mm | - | - | - |
| 1777644047 | 22.78° C | 47% | 1011.8 hPa | 0 mm | - | - | - |
| 1777643447 | 22.78° C | 48% | 1011.5 hPa | 0 mm | - | - | - |
| 1777642847 | 22.78° C | 45% | 1011.5 hPa | 0 mm | - | - | - |
| 1777642247 | 22.78° C | 49% | 1011.1 hPa | 0 mm | - | - | - |
| 1777641949 | 22.78° C | 50% | 1010.8 hPa | 0 mm | - | - | - |
| 1777641647 | 22.78° C | 49% | 1010.4 hPa | 0 mm | - | - | - |
| 1777641047 | 22.78° C | 47% | 1010.8 hPa | 0 mm | - | - | - |
| 1777640447 | 22.78° C | 49% | 1010.4 hPa | 0 mm | - | - | - |
| 1777639847 | 22.78° C | 47% | 1010.4 hPa | 0 mm | - | - | - |
| 1777639247 | 22.78° C | 46% | 1009.8 hPa | 0 mm | - | - | - |
| 1777638647 | 22.78° C | 46% | 1012.1 hPa | 0 mm | - | - | - |
| 1777638047 | 22.78° C | 46% | 1010.1 hPa | 0 mm | - | - | - |
| 1777637447 | 22.78° C | 46% | 1009.4 hPa | 0 mm | - | - | - |
| 1777636847 | 22.78° C | 44% | 1011.1 hPa | 0 mm | - | - | - |
| 1777636247 | 22.78° C | 49% | 1010.8 hPa | 0 mm | - | - | - |
| 1777635647 | 22.78° C | 48% | 1010.8 hPa | 0 mm | - | - | - |
| 1777635047 | 22.78° C | 46% | 1009.4 hPa | 0 mm | - | - | - |
| 1777634447 | 22.78° C | 49% | 1010.8 hPa | 0 mm | - | - | - |
| 1777633847 | 22.78° C | 45% | 1011.1 hPa | 0 mm | - | - | - |
| 1777633247 | 22.78° C | 46% | 1012.1 hPa | 0 mm | - | - | - |
* Rain latest hour (hover to see other rain measurements)
** Current wind speed in m/s (hover to see current wind gust speed)